STARLINK-5702, 55622

Orbit data source: Space-Track

STARLINK-5702, 55622 is a payload satellite owned by SpaceX/Seattle (US) in LEO that was launched on Sun, 12 Feb 2023 UTC via an FALCON 9 launch vehicle from the Air Force Eastern Test Range (AFETR). Payload-class satellites include a variety of spacecraft equipped with specific instruments for various scientific and technological missions. These include communications satellites like Starlink; space stations such as the ISS; scientific satellites like the Hubble; Earth observation satellites from companies like Planet Labs, Umbra, and HawkEye 360; GPS; miniature CubeSats for education and research; and military/defense satellites.

Loading next visibility...
Identifier
55622, 2023-020BF
Orbit
LEO
Country
Flag of USUS
Related business
Manufacturer
SpaceX/Seattle
Mission
Operational Commercial Communications
Bus & Motor
STARLINK, Unknown motor
Mass
305 kg wet, ~290 kg dry
Launch date (UTC)
2023-02-12 (4 years ago)
Launch vehicle
FALCON 9
Launch site
Air Force Eastern Test Range (AFETR)
Object type
Payload
Rocket body
Debris
Shape & HBR
Box + 1 Pan, 10.1 m
Radar Cross Section
13.562 m², Large (>1 m²)

Expand to show TLE details & history
Last TLE update: 1 day ago

TLE from 1 day ago
0 STARLINK-5702
1 55622U 23020BF  26264.48625915 -.00000024  00000-0  86424-5 0  9993
2 55622  43.0036 328.4917 0001120 275.2926  84.7798 15.27574285198983
Epoch: 2026-09-21T11:40Z
TLE epoch observation values (Epoch: 2026-09-21T11:40:12.790Z)
Latitude
-0.00001°
Longitude
153.073°
Altitude
482.772 km
Speed
7.626 km/s
True Right ascension
21h 53m 58s
True Declination
0° 00' 00"
Sunlit
Object was in full shadow at epoch
Visualization orbit readout
Latitude
Unknown
Longitude
Unknown
Altitude
Unknown
Speed
Unknown
Apparent Right ascension
Unknown
Apparent Declination
Unknown
Sunlit
N/A
Visualization observer readout
Local Sidereal Time
12:41:32
Azimuth
Unknown
Elevation
Unknown
Doppler factor
Unknown
Orbital elements
Apogee altitude
485.779 km
Perigee altitude
484.242 km
Semi-major axis
6,863.148 km
Eccentricity
0.00011
Inclination
43.0036°
RAAN
328.4917°
Arg. of periapsis
275.2926°
True anomaly
84.79258°
Mean anomaly
84.7798°
Eccentric anomaly
84.78619°
Mean motion
3.81732 °/min
Orbital period
94.31 mins
BSTAR
0.0000086424
Loading maneuver chart data...
Computing Atmospheric mass density...
Loading historical data...
Loading historical data...
Loading historical data...
Loading historical data...
Loading historical data...
Loading historical data...
Loading historical data...

Documentation

Showing up to 5 results
|